Faith, SD

7:00 AM MDT on August 23, 2017 (GMT -0600)
Faith

Weather History for KD07 - October, 2013

Change the Weather History Date:

Wednesday, October 16, 2013

  Actual Average Record
Temperature  
Mean Temperature 44 °F 47 °F  
Max Temperature 56 °F 59 °F 80 °F (2016)
Min Temperature 32 °F 35 °F 23 °F (2001)
Degree Days  
Heating Degree Days 21 18  
Month to date heating degree days 301 247  
Since 1 July heating degree days 396 479  
Cooling Degree Days 0 0  
Month to date cooling degree days 0 0  
Year to date cooling degree days 720 634  
Moisture  
Dew Point 31 °F    
Average Humidity 62    
Maximum Humidity 82    
Minimum Humidity 41    
Precipitation  
Precipitation 0.00 in 0.07 in 1.05 in (1998)
Month to date precipitation 2.21 0.61  
Year to date precipitation 15.68 15.79  
Sea Level Pressure  
Sea Level Pressure 30.04 in    
Wind  
Wind Speed 11 mph (West)    
Max Wind Speed 20 mph    
Max Gust Speed 24 mph    
T = Trace of Precipitation, MM = Missing Value Source: NWS Daily Summary

Daily Weather History Graph

Daily Weather History Graph

Search for Another Location

Airport or City:

Trip Planner

Search our weather history database for the weather conditions in past years. The results will help you decide how hot, cold, wet, or windy it might be!

Date:

Astronomy

Oct. 16, 2013 Rise Set
Actual Time 7:05 AM MDT 6:00 PM MDT
Civil Twilight 6:35 AM MDT 6:30 PM MDT
Nautical Twilight 6:01 AM MDT 7:04 PM MDT
Astronomical Twilight 5:27 AM MDT 7:38 PM MDT
Moon 4:45 PM MDT (10/16) 4:30 AM MDT (10/16)
Length of Visible Light 11h 54m
Length of Day
10h 55m
Waxing Gibbous, 94% of the Moon is Illuminated
Oct 16
Waxing Gibbous
Oct 18
Full
Oct 26
Last Quarter
Nov 3
New
Nov 9
First Quarter

Hourly Weather History & Observations

Time (MDT) Temp. Windchill Dew Point Humidity Pressure Visibility Wind Dir Wind Speed Gust Speed Precip Events Conditions
12:56 AM 34.0 °F 27.2 °F 28.0 °F 79% 30.17 in - West 8.1 mph - N/A   Unknown
1:56 AM 33.1 °F 26.9 °F 28.0 °F 82% 30.16 in - West 6.9 mph - N/A   Unknown
2:56 AM 33.1 °F 26.1 °F 27.0 °F 78% 30.14 in - West 8.1 mph - N/A   Unknown
3:56 AM 32.0 °F 25.6 °F 27.0 °F 82% 30.12 in - West 6.9 mph - N/A   Unknown
4:56 AM 33.1 °F 25.5 °F 28.0 °F 82% 30.10 in - West 9.2 mph - N/A   Unknown
5:56 AM 33.1 °F 26.1 °F 28.0 °F 82% 30.09 in - West 8.1 mph - N/A   Unknown
6:56 AM 33.1 °F 24.4 °F 28.0 °F 82% 30.09 in - West 11.5 mph - N/A   Unknown
7:56 AM 35.1 °F 26.9 °F 28.9 °F 78% 30.09 in - West 11.5 mph - N/A   Unknown
8:56 AM 36.0 °F 28.0 °F 30.0 °F 79% 30.08 in - SW 11.5 mph - N/A   Unknown
9:56 AM 43.0 °F 36.4 °F 33.1 °F 68% 30.08 in - WSW 12.7 mph - N/A   Unknown
10:56 AM 48.9 °F - 30.0 °F 48% 30.05 in - WSW 16.1 mph - N/A   Unknown
11:56 AM 51.1 °F - 30.9 °F 46% 30.02 in - WSW 15.0 mph - N/A   Unknown
12:56 PM 53.1 °F - 30.9 °F 43% 29.99 in - WSW 15.0 mph 21.9 mph N/A   Unknown
2:56 PM 55.0 °F - 32.0 °F 42% 29.96 in - West 15.0 mph - N/A   Unknown
4:56 PM 55.9 °F - 32.0 °F 40% 29.94 in - WNW 10.4 mph - N/A   Unknown
5:56 PM 50.0 °F - 33.1 °F 52% 29.94 in - West 5.8 mph - N/A   Unknown
6:56 PM 46.0 °F 43.9 °F 33.1 °F 61% 29.96 in - WNW 4.6 mph - N/A   Unknown
7:56 PM 46.0 °F 42.5 °F 33.1 °F 61% 29.96 in - West 6.9 mph - N/A   Unknown
8:56 PM 43.0 °F 38.2 °F 34.0 °F 71% 29.96 in - WNW 8.1 mph - N/A   Unknown
9:56 PM 42.1 °F 36.6 °F 34.0 °F 73% 29.96 in - WNW 9.2 mph - N/A   Unknown
10:56 PM 39.9 °F 33.4 °F 33.1 °F 77% 29.96 in - NW 10.4 mph - N/A   Unknown
11:56 PM 37.9 °F 30.5 °F 32.0 °F 79% 29.96 in - WNW 11.5 mph - N/A   Unknown